OICK  Khoram Abad Airport

Add Bookmark

Iran

Status IATA
Operational KHD
Latitude Longitude
33° 26' 7" N 48° 16' 58" E
33.435398 48.282902
Local (DST + 5) UTC (GMT + 4)
Oct 25, 2014 12:47 Oct 24, 2014 21:17
Sunrise-Sunset Local UTC
Begin Civil Twilight 06:03 02:33
Sunrise 06:28 02:58
Sunset 05:33 14:03
End Civil Twilight 05:58 14:28

Current Weather

METAR Observed VFR
OICK 242050Z 00000KT CAVOK 11/07 Q1020 Fri, Oct 24, 2014 @ 20:50 UTC
(27 Minutes ago)
Visual Flight Rules
Wind Visibility Clouds Conditions
Calm 10 km or more
  • Clear skies
  • No significant weather
Temperatures Readings Precipitation
Current Temp 11°C (52°F)
Dewpoint 7°C (45°F)
Humidity 77%
Altimeter 30.12"Hg
Sea Level Pressure 1020mb
Field Elevation 3789.37'
None Recorded

Additional weather within a 92.6km radius of OICK

Map ICAO Location
OICJ 67.2km N (040°)

24 Hour Weather History

Loading
-

24 Hour Weather Graphs

Loading
-

CheckWX.com is intended as a tool to help pilots better visualize weather data. It is not intended as a substitute for an official weather briefing obtained from a Flight Service Station. CheckWX.com does not meet the FAA requirements for an official pre-flight weather briefing. Therefore, it's important that pilots still call and obtain an official FSS pre-flight weather briefing.